Change the Weather History Date:

Wednesday, April 30, 2014

  Actual Average Record
Temperature  
Mean Temperature 73 °F 70 °F  
Max Temperature 78 °F 83 °F 93 °F (2012)
Min Temperature 67 °F 56 °F 43 °F (2008)
Degree Days  
Heating Degree Days 0 1  
Month to date heating degree days 28 68  
Since 1 July heating degree days 1238 1632  
Cooling Degree Days 8 5  
Month to date cooling degree days 173 92  
Year to date cooling degree days 238 135  
Growing Degree Days 23 (Base 50)    
Moisture  
Dew Point 65 °F    
Average Humidity 75    
Maximum Humidity 87    
Minimum Humidity 62    
Precipitation  
Precipitation 0.33 in 0.06 in 1.18 in (2004)
Month to date precipitation 8.89 2.87  
Year to date precipitation 19.19 16.47  
Sea Level Pressure  
Sea Level Pressure 30.04 in    
Wind  
Wind Speed 4 mph (SSW)    
Max Wind Speed 20 mph    
Max Gust Speed 25 mph    
Visibility 8 miles    
Events Rain , Thunderstorm    
T = Trace of Precipitation, MM = Missing Value Source: NWS Daily Summary

Daily Weather History Graph

Daily Weather History Graph

Search for Another Location

Airport or City:

Trip Planner

Search our weather history database for the weather conditions in past years. The results will help you decide how hot, cold, wet, or windy it might be!

Date:

Astronomy

Apr. 30, 2014 Rise Set
Actual Time 6:49 AM EDT 8:11 PM EDT
Civil Twilight 6:24 AM EDT 8:36 PM EDT
Nautical Twilight 5:54 AM EDT 9:07 PM EDT
Astronomical Twilight 5:22 AM EDT 9:38 PM EDT
Moon 7:52 AM EDT (4/30) 9:45 PM EDT (4/30)
Length of Visible Light 14h 12m
Length of Day
13h 21m
New Moon, 2% of the Moon is Illuminated
Apr 30
New Moon
May 6
First Quarter
May 14
Full
May 21
Last Quarter
May 28
New

Hourly Weather History & Observations

Time (EDT) Temp. Dew Point Humidity Pressure Visibility Wind Dir Wind Speed Gust Speed Precip Events Conditions
12:53 AM 68.0 °F 64.0 °F 87% 29.99 in 7.0 mi Calm Calm - N/A   Clear
1:53 AM 68.0 °F 64.0 °F 87% 29.98 in 8.0 mi Calm Calm - N/A   Clear
2:53 AM 68.0 °F 63.0 °F 84% 29.98 in 6.0 mi Calm Calm - N/A   Haze
3:53 AM 70.0 °F 64.9 °F 84% 29.95 in 10.0 mi Calm Calm - N/A   Clear
4:53 AM 70.0 °F 64.9 °F 84% 29.96 in 10.0 mi South 4.6 mph - N/A   Clear
5:53 AM 71.1 °F 66.0 °F 84% 29.96 in 10.0 mi South 3.5 mph - N/A   Clear
7:34 AM 71.6 °F 66.2 °F 83% 30.02 in 10.0 mi Variable 4.6 mph - N/A   Overcast
7:44 AM 71.6 °F 66.2 °F 83% 30.03 in 10.0 mi Variable 3.5 mph - N/A   Overcast
7:53 AM 72.0 °F 66.0 °F 81% 30.05 in 10.0 mi Variable 3.5 mph - N/A   Overcast
8:06 AM 71.6 °F 64.4 °F 78% 30.05 in 10.0 mi Variable 3.5 mph - N/A Thunderstorm Thunderstorm
8:31 AM 69.8 °F 64.4 °F 83% 30.05 in 3.0 mi NW 4.6 mph - 0.05 in Rain , Thunderstorm Light Thunderstorms and Rain
8:53 AM 69.1 °F 64.0 °F 84% 30.09 in 3.0 mi Variable 3.5 mph - 0.16 in Rain , Thunderstorm Thunderstorms and Rain
9:53 AM 71.1 °F 64.9 °F 81% 30.09 in 10.0 mi Calm Calm - 0.03 in   Mostly Cloudy
9:59 AM 71.6 °F 64.4 °F 78% 30.07 in 10.0 mi Calm Calm - N/A Thunderstorm Thunderstorm
11:53 AM 71.1 °F 66.0 °F 84% 30.13 in 10.0 mi Calm Calm - 0.01 in Rain , Thunderstorm Light Thunderstorms and Rain
12:50 PM 71.6 °F 66.2 °F 83% 30.13 in 2.0 mi Variable 3.5 mph - 0.07 in Rain , Thunderstorm Thunderstorms and Rain
12:53 PM 72.0 °F 66.9 °F 84% 30.15 in 2.0 mi WSW 4.6 mph - 0.07 in Rain , Thunderstorm Light Thunderstorms and Rain
12:55 PM 71.6 °F 66.2 °F 83% 30.13 in 4.0 mi WSW 4.6 mph - 0.00 in Rain Light Rain
1:53 PM 71.1 °F 66.0 °F 84% 30.14 in 10.0 mi Calm Calm - 0.04 in Rain Light Rain
2:53 PM 73.9 °F 66.0 °F 76% 30.08 in 10.0 mi SW 3.5 mph - 0.02 in   Scattered Clouds
3:53 PM 78.1 °F 64.9 °F 64% 30.03 in 10.0 mi SSW 8.1 mph - N/A   Mostly Cloudy
4:53 PM 75.9 °F 64.0 °F 67% 30.03 in 10.0 mi Variable 6.9 mph 18.4 mph N/A   Mostly Cloudy
5:53 PM 75.0 °F 63.0 °F 66% 29.96 in 10.0 mi South 17.3 mph 25.3 mph N/A   Mostly Cloudy
6:53 PM 75.0 °F 63.0 °F 66% 29.96 in 10.0 mi South 13.8 mph - 0.00 in   Scattered Clouds
7:53 PM 72.0 °F 64.0 °F 76% 29.95 in 10.0 mi SSE 4.6 mph - N/A   Mostly Cloudy
8:53 PM 70.0 °F 63.0 °F 78% 30.00 in 10.0 mi Calm Calm - N/A   Scattered Clouds
9:53 PM 69.1 °F 63.0 °F 81% 30.03 in 10.0 mi Calm Calm - 0.00 in   Partly Cloudy
10:53 PM 69.1 °F 64.0 °F 84% 30.01 in 10.0 mi South 3.5 mph - N/A   Clear
11:53 PM 71.1 °F 63.0 °F 75% 30.03 in 10.0 mi Variable 3.5 mph - N/A   Scattered Clouds